TimePST,TemperatureF,Dew PointF,Humidity,Sea Level PressureIn,VisibilityMPH,Wind Direction,Wind SpeedMPH,Gust SpeedMPH,PrecipitationIn,Events,Conditions,WindDirDegrees,DateUTC
12:53 AM,34.0,17.1,50,29.83,9.0,ENE,9.2,-,N/A,,Overcast,70,2014-02-08 08:53:00
1:53 AM,34.0,16.0,48,29.86,10.0,ENE,10.4,-,N/A,,Overcast,70,2014-02-08 09:53:00
2:53 AM,34.0,15.1,46,29.88,10.0,ENE,12.7,-,N/A,,Overcast,60,2014-02-08 10:53:00
3:53 AM,34.0,17.1,50,29.92,10.0,ENE,17.3,25.3,N/A,,Overcast,60,2014-02-08 11:53:00
4:53 AM,33.1,19.0,56,29.91,10.0,ENE,15.0,23.0,N/A,,Overcast,60,2014-02-08 12:53:00
5:53 AM,32.0,19.9,61,29.93,10.0,ENE,12.7,23.0,N/A,,Partly Cloudy,60,2014-02-08 13:53:00
6:53 AM,32.0,19.9,61,29.93,10.0,ENE,15.0,-,N/A,,Mostly Cloudy,60,2014-02-08 14:53:00
7:53 AM,32.0,19.9,61,29.93,8.0,ENE,18.4,28.8,N/A,,Clear,60,2014-02-08 15:53:00
8:53 AM,34.0,19.9,56,29.95,8.0,ENE,17.3,29.9,N/A,,Clear,60,2014-02-08 16:53:00
9:53 AM,35.1,19.9,54,29.96,8.0,ENE,13.8,21.9,N/A,,Clear,70,2014-02-08 17:53:00
10:53 AM,36.0,19.9,52,29.93,8.0,ENE,16.1,29.9,N/A,,Scattered Clouds,60,2014-02-08 18:53:00
11:53 AM,37.0,21.9,54,29.92,8.0,ENE,18.4,-,N/A,,Overcast,70,2014-02-08 19:53:00
12:53 PM,37.9,23.0,55,29.87,8.0,ENE,18.4,27.6,N/A,,Overcast,60,2014-02-08 20:53:00
1:53 PM,39.0,21.9,50,29.83,8.0,NE,15.0,-,N/A,,Overcast,50,2014-02-08 21:53:00
2:53 PM,37.9,19.9,48,29.78,8.0,ENE,17.3,27.6,N/A,,Overcast,60,2014-02-08 22:53:00
3:53 PM,37.9,19.0,47,29.79,8.0,ENE,18.4,28.8,N/A,,Overcast,70,2014-02-08 23:53:00
4:22 PM,36.0,24.1,62,29.79,1.8,ENE,26.5,34.5,0.00,Snow,Light Snow,70,2014-02-09 00:22:00
4:29 PM,35.1,25.0,67,29.79,1.2,NE,21.9,34.5,0.00,Snow,Light Snow,50,2014-02-09 00:29:00
4:39 PM,33.1,27.0,78,29.79,0.5,ENE,23.0,35.7,0.00,Snow,Snow,70,2014-02-09 00:39:00
4:53 PM,32.0,28.0,85,29.81,0.5,ENE,16.1,27.6,0.00,Fog-Snow,Light Snow,60,2014-02-09 00:53:00
5:38 PM,32.0,30.0,92,29.79,0.8,NE,17.3,25.3,0.00,Snow,Light Snow,50,2014-02-09 01:38:00
5:53 PM,32.0,30.0,92,29.81,0.8,NE,16.1,23.0,0.00,Snow,Light Snow,50,2014-02-09 01:53:00
6:17 PM,32.0,30.0,92,29.80,1.2,NE,17.3,23.0,0.00,Snow,Light Snow,40,2014-02-09 02:17:00
6:36 PM,32.0,30.0,92,29.80,0.8,NE,15.0,24.2,0.00,Snow,Light Snow,50,2014-02-09 02:36:00
6:43 PM,32.0,30.0,92,29.80,0.8,ENE,13.8,23.0,0.00,Snow,Light Snow,60,2014-02-09 02:43:00
6:53 PM,32.0,30.0,92,29.81,0.8,ENE,12.7,-,0.00,Snow,Light Snow,60,2014-02-09 02:53:00
7:19 PM,32.0,30.0,92,29.80,1.0,ENE,15.0,20.7,0.00,Snow,Light Snow,60,2014-02-09 03:19:00
7:26 PM,32.0,30.0,92,29.81,1.5,NE,13.8,-,0.00,Snow,Light Snow,50,2014-02-09 03:26:00
7:45 PM,32.0,30.0,92,29.81,0.8,NE,16.1,24.2,0.00,Snow,Light Snow,40,2014-02-09 03:45:00
7:53 PM,32.0,30.0,92,29.83,0.8,NE,12.7,-,0.00,Snow,Light Snow,50,2014-02-09 03:53:00
7:59 PM,32.0,30.0,92,29.82,1.0,NE,12.7,-,0.00,Snow,Light Snow,50,2014-02-09 03:59:00
8:46 PM,32.0,30.0,92,29.82,2.0,NE,13.8,-,0.00,Snow,Light Snow,50,2014-02-09 04:46:00
8:53 PM,32.0,30.0,92,29.83,2.5,NE,18.4,26.5,0.00,Snow,Light Snow,50,2014-02-09 04:53:00
9:00 PM,32.0,30.0,92,29.82,4.0,NE,16.1,26.5,0.00,Snow,Light Snow,50,2014-02-09 05:00:00
9:53 PM,33.1,28.9,85,29.88,9.0,NE,11.5,20.7,0.00,,Overcast,40,2014-02-09 05:53:00
10:53 PM,32.0,30.0,92,29.91,4.0,ENE,8.1,-,0.00,Snow,Light Snow,60,2014-02-09 06:53:00
11:53 PM,32.0,30.0,92,29.96,9.0,ENE,6.9,-,0.00,,Overcast,60,2014-02-09 07:53:00